This is the latest recevied weather packets stored in our database for station/object N5GMJ. If no packets are shown the sender has not sent any weather packets the latest 10 day(s).
| Time | Temp. | Humidity | Pressure | Rain* | Wind** | Luminosity | Snow |
|---|---|---|---|---|---|---|---|
| 1777393761 | 27.78° C | 82% | 1012.9 hPa | 0 mm | - | - | - |
| 1777393461 | 27.78° C | 81% | 1013.1 hPa | 0 mm | - | - | - |
| 1777393157 | 27.78° C | 83% | 1013.2 hPa | 0 mm | - | - | - |
| 1777392854 | 27.22° C | 83% | 1013.2 hPa | 0 mm | - | - | - |
| 1777392549 | 27.22° C | 83% | 1013.2 hPa | 0 mm | - | - | - |
| 1777392245 | 27.22° C | 82% | 1013.1 hPa | 0 mm | - | - | - |
| 1777391940 | 27.22° C | 83% | 1013 hPa | 0 mm | - | - | - |
| 1777391635 | 27.22° C | 84% | 1013.1 hPa | 0 mm | - | - | - |
| 1777391332 | 27.22° C | 85% | 1013.4 hPa | 0 mm | - | - | - |
| 1777391029 | 26.67° C | 85% | 1013.1 hPa | 0 mm | - | - | - |
| 1777390724 | 26.11° C | 86% | 1013.2 hPa | 0 mm | - | - | - |
| 1777390422 | 26.11° C | 86% | 1013.2 hPa | 0 mm | - | - | - |
| 1777390118 | 26.11° C | 87% | 1013.2 hPa | 0 mm | - | - | - |
| 1777389814 | 25.56° C | 87% | 1013.2 hPa | 0 mm | - | - | - |
| 1777389512 | 26.11° C | 88% | 1013.2 hPa | 0 mm | - | - | - |
| 1777389208 | 25.56° C | 88% | 1013.3 hPa | 0 mm | - | - | - |
| 1777388906 | 26.11° C | 87% | 1013.1 hPa | 0 mm | - | - | - |
| 1777388602 | 26.11° C | 87% | 1013.4 hPa | 0 mm | - | - | - |
| 1777388300 | 26.11° C | 87% | 1013.1 hPa | 0 mm | - | - | - |
| 1777387999 | 26.11° C | 87% | 1012.8 hPa | 0 mm | - | - | - |
| 1777387696 | 26.11° C | 87% | 1012.9 hPa | 0 mm | - | - | - |
| 1777387392 | 25.56° C | 88% | 1012.9 hPa | 0 mm | - | - | - |
| 1777387092 | 25.56° C | 89% | 1013 hPa | 0 mm | - | - | - |
| 1777386789 | 25° C | 90% | 1013.1 hPa | 0 mm | - | - | - |
| 1777386486 | 25.56° C | 89% | 1012.8 hPa | 0 mm | - | - | - |
* Rain latest hour (hover to see other rain measurements)
** Current wind speed in m/s (hover to see current wind gust speed)